{"data":{"norad_id":57897,"epoch":"2026-09-19T19:19:37.608096Z","epoch_age_seconds":194448,"freshness":"STALE","line1":"1 57897U 23146G   26262.80529639 -.00000508  00000+0 -89434-5 0  9999","line2":"2 57897  43.0030 297.9497 0001411 272.9913  87.0777 15.27578749166740","mean_motion":15.27578749,"eccentricity":0.0001411,"inclination_deg":43.003,"raan_deg":297.9497,"arg_perigee_deg":272.9913,"mean_anomaly_deg":87.0777,"bstar":-8.9434e-6,"rev_number":16674,"period_min":94.26682591275,"perigee_km":482.08472809955,"apogee_km":484.02095587296,"semimajor_km":6861.1898419863,"source":"CELESTRAK","updated_at":"2026-09-21T09:00:33.721663Z"}}